Theta_e
341 341 342 342 344 344 345 346 345 347 345 349 348 349 350 349 353 353 356 357 355 354 354 353 352 351 352 349 347 348 350 345 342 345 345 347 352 355 364 359 366 368 371 371 367 366 362 363 363 357 359 362 363 362 358 356 362 366 368 364 357 357 345 344 349 349 348 342 342 342 343 352 357 353 348 351 353 358 365 365 361 361 355 355 364
339 340 341 342 343 342 345 344 349 344 346 349 348 348 352 350 351 353 357 358 356 354 354 353 355 352 350 350 348 346 348 348 345 345 346 345 360 362 364 360 366 369 371 374 372 369 364 362 361 365 366 361 361 364 359 365 368 363 359 368 359 350 360 344 344 343 346 345 346 342 352 355 361 351 349 343 348 360 363 362 362 356 353 352 359
337 339 340 341 342 342 343 343 346 346 347 348 349 350 350 351 355 356 356 356 355 356 356 356 358 358 355 353 351 348 346 347 345 347 347 347 351 357 363 373 368 367 368 372 369 366 365 365 363 366 367 367 365 360 360 362 368 360 364 359 357 356 359 350 350 356 348 352 354 351 345 345 359 355 348 345 342 352 352 344 349 347 352 354 364
336 337 337 340 341 342 343 343 346 347 348 348 349 350 349 355 356 356 356 356 358 359 359 356 358 364 360 362 356 357 351 350 350 350 348 348 349 354 367 368 370 360 360 362 359 366 367 368 363 364 361 366 367 363 361 362 364 367 356 357 363 353 346 348 361 357 355 355 345 342 344 340 339 356 348 355 347 344 342 341 344 346 350 350 353
335 336 338 339 341 341 342 344 345 345 347 348 349 350 349 352 355 358 357 357 357 360 360 359 361 358 363 359 357 359 354 354 346 345 346 352 350 354 359 364 367 362 359 361 360 369 370 369 365 360 364 369 367 367 368 358 356 354 360 363 359 359 349 358 358 353 354 355 356 353 347 346 344 342 339 352 345 341 342 342 345 342 348 350 351
338 337 338 338 339 341 343 344 345 345 346 348 351 350 352 352 356 360 359 357 357 360 363 363 362 359 360 354 348 350 351 347 341 340 342 345 346 352 355 361 362 361 361 357 360 368 369 369 369 363 360 366 368 362 361 355 361 361 359 363 355 358 360 354 352 364 351 367 355 353 355 349 350 347 340 350 355 344 351 340 345 342 347 351 350
337 338 339 338 340 340 341 342 344 344 346 349 350 350 353 353 356 357 360 360 360 361 356 356 356 359 357 354 350 349 349 345 349 342 343 346 347 348 353 357 359 359 359 357 365 369 369 370 369 365 367 363 367 371 365 355 352 353 354 358 361 366 368 364 357 353 364 358 349 346 352 357 346 348 344 339 337 350 342 338 346 345 346 351 353
336 337 338 339 339 340 341 342 344 344 346 348 350 350 353 357 358 360 361 360 359 360 355 356 356 359 358 355 354 350 347 348 350 350 344 352 348 346 350 355 356 361 362 365 363 362 366 367 371 370 364 360 364 363 360 357 361 360 364 361 367 381 369 364 360 354 367 360 353 348 347 346 347 344 341 338 346 338 348 340 339 343 345 348 353
336 336 337 339 339 339 341 342 344 346 346 347 348 352 351 353 360 359 362 360 356 359 355 356 359 358 357 356 355 356 352 349 352 352 345 351 348 348 351 350 354 360 360 361 363 363 365 365 367 368 364 364 368 363 360 355 356 359 361 364 365 379 366 364 372 364 353 350 353 355 348 350 343 341 339 342 338 337 342 344 343 342 345 347 351
337 338 339 339 340 341 342 342 343 344 346 348 348 349 350 354 358 359 361 361 355 355 354 354 355 355 355 355 355 357 358 360 356 353 360 354 350 354 352 351 349 352 359 363 366 364 363 365 362 359 359 355 361 359 363 359 358 360 358 357 366 364 373 366 364 361 352 356 352 357 352 355 352 341 338 335 339 354 346 339 345 339 340 345 352
336 337 339 340 341 342 342 342 345 345 348 347 347 347 350 352 356 358 360 359 358 356 353 353 353 353 353 355 356 356 357 355 356 352 353 359 348 347 352 354 349 348 354 361 362 362 361 362 358 355 357 361 362 361 361 354 355 358 357 359 369 369 367 369 359 363 359 363 348 351 353 342 349 343 342 341 337 340 341 336 342 338 337 345 351
338 337 336 339 340 341 342 343 345 346 346 348 346 347 355 354 359 360 361 358 356 356 355 353 352 352 356 357 356 358 357 354 354 351 347 353 347 349 352 353 357 349 353 357 360 360 361 360 361 357 359 358 356 360 358 357 354 355 359 365 366 367 369 365 360 359 353 361 355 348 346 342 343 343 342 346 350 350 349 346 342 349 343 347 349
337 337 339 339 339 339 339 344 346 350 345 348 346 349 352 355 357 359 362 357 352 355 352 352 353 355 357 358 360 361 359 357 356 354 350 350 346 345 354 352 357 359 349 357 358 358 359 360 357 356 359 358 360 363 366 369 366 358 360 356 357 365 366 362 360 355 351 349 346 345 347 345 342 347 343 341 346 350 348 345 342 341 341 344 347
338 337 338 341 341 340 342 346 347 348 345 345 347 349 350 352 358 358 362 361 357 358 354 352 354 357 358 359 359 359 358 356 355 354 349 348 353 349 344 346 351 350 349 356 356 357 356 356 357 358 362 361 362 367 368 367 364 359 359 356 354 363 364 365 365 356 357 354 352 346 342 341 348 347 346 344 345 343 353 343 355 350 342 341 346
338 340 343 345 341 345 344 346 349 348 347 349 344 350 354 353 358 362 362 360 361 360 359 358 358 358 359 358 358 357 357 356 356 354 354 346 344 345 350 346 347 349 350 355 356 354 353 354 356 355 358 365 367 367 361 362 366 369 363 367 366 360 360 358 356 354 351 350 351 350 349 346 346 352 345 356 345 344 345 348 350 350 342 341 341
338 339 341 344 346 345 349 349 347 347 350 349 348 350 350 354 361 360 361 360 361 360 359 358 358 358 359 357 358 358 359 357 357 358 356 353 347 347 350 353 349 350 351 352 352 355 355 355 356 353 359 362 366 364 363 361 363 360 364 360 358 351 355 358 357 353 352 352 350 353 352 346 353 347 346 348 353 356 353 355 363 353 348 339 341
338 340 340 347 342 344 346 347 346 347 348 349 349 351 357 359 360 360 361 361 363 361 357 359 360 359 359 357 356 356 355 354 355 354 352 353 352 349 346 346 346 349 348 349 349 354 355 355 354 353 357 360 362 364 362 363 364 360 357 362 357 353 356 357 357 356 355 350 348 347 348 350 356 366 353 350 366 360 355 354 352 352 354 349 340
345 340 346 350 346 347 350 349 349 349 348 348 352 349 355 360 358 360 359 358 355 357 357 359 357 356 357 356 356 355 353 354 356 353 353 354 352 350 346 344 343 344 346 346 347 350 355 359 355 354 353 354 356 359 360 359 361 359 356 362 357 360 361 363 361 352 350 357 351 347 347 347 359 353 352 349 362 374 359 359 357 354 356 351 348
341 343 345 349 347 347 347 348 349 354 350 348 349 350 356 356 358 360 359 358 357 356 357 357 357 354 355 354 354 355 356 355 356 355 353 352 350 347 345 345 343 345 350 354 350 346 351 355 355 352 353 355 356 354 357 357 359 358 355 354 356 364 362 362 363 359 355 355 361 352 355 355 361 351 352 351 353 365 364 361 356 357 356 353 349
341 339 340 343 346 346 348 349 349 350 351 348 346 351 356 357 359 359 360 360 358 356 353 352 354 354 356 356 355 356 356 355 355 353 351 349 348 347 346 344 344 344 344 349 349 348 348 349 349 349 348 348 351 350 352 356 358 355 353 350 352 360 359 360 357 355 357 358 359 356 357 360 363 361 358 354 357 361 355 356 357 361 362 360 358
344 343 345 344 344 346 347 350 352 356 355 354 353 355 355 355 356 358 359 356 355 354 352 351 351 352 353 353 353 353 353 356 356 353 351 349 348 348 346 345 345 344 344 344 346 350 354 352 350 351 349 350 353 352 353 354 357 357 357 359 359 362 357 357 362 359 362 356 362 360 365 364 368 359 360 355 352 352 363 360 366 360 358 359 356
340 343 343 343 345 346 348 351 351 352 353 354 355 357 351 356 356 359 359 356 351 351 349 352 351 350 351 351 351 355 353 354 353 353 352 350 347 348 348 348 345 346 349 346 346 345 347 350 348 348 349 348 354 355 352 351 353 356 355 349 351 359 366 361 364 363 365 366 364 366 365 360 362 361 358 352 351 351 347 352 362 357 354 358 360
344 344 346 348 347 347 350 351 351 351 353 354 355 353 350 357 360 360 360 360 358 354 351 355 354 353 351 351 352 353 354 350 350 350 350 347 347 347 347 345 343 344 347 349 347 345 347 348 348 347 350 349 351 352 351 351 351 354 354 352 355 355 357 356 359 362 364 366 364 366 363 364 358 353 353 354 355 350 350 352 358 356 354 356 359
341 349 349 350 349 351 353 352 352 354 356 355 356 358 359 359 360 361 358 357 358 360 358 356 354 355 354 350 350 354 352 352 354 351 350 349 348 348 348 345 346 346 344 347 346 345 348 351 348 350 352 351 351 350 349 349 354 356 355 355 355 358 357 354 355 358 360 364 366 364 359 359 356 354 352 353 356 356 354 358 352 357 356 351 356
340 345 347 349 348 348 353 355 358 356 356 358 358 359 360 360 360 360 361 361 362 362 361 359 357 357 353 353 348 349 349 351 356 355 349 349 348 349 350 349 347 347 347 347 348 349 350 351 345 346 347 352 351 352 353 349 349 352 357 356 356 356 357 360 359 363 365 366 363 361 359 362 358 354 355 353 356 354 351 353 353 353 349 351 354
344 346 347 345 349 352 354 354 356 355 356 359 360 360 360 362 362 362 363 363 363 361 361 359 359 358 359 358 351 351 352 349 350 350 350 351 349 347 348 350 350 349 348 346 347 346 346 350 348 348 346 348 352 353 354 356 352 352 352 353 358 362 357 356 355 363 364 364 362 362 361 361 358 355 357 358 353 348 348 350 352 353 350 351 350
344 345 346 348 349 349 351 353 354 353 351 357 359 361 360 361 362 363 363 363 364 364 362 361 359 357 358 358 358 358 356 356 354 349 350 351 350 349 348 348 349 350 353 346 345 349 348 346 348 348 347 348 350 350 355 359 355 354 355 355 352 353 355 354 353 361 359 363 362 361 359 360 360 357 357 355 352 349 350 350 352 352 350 352 346
347 345 346 345 346 351 353 354 354 356 357 356 358 360 359 360 362 363 364 363 362 362 361 360 359 358 358 355 357 357 359 362 361 363 360 357 353 350 353 352 349 349 347 348 347 345 347 347 347 346 348 351 355 354 357 358 358 355 354 353 355 353 352 354 357 356 356 361 364 363 363 361 360 359 357 354 353 348 351 351 358 359 355 349 348
344 346 347 347 344 347 349 351 354 355 354 355 357 360 360 359 361 362 363 362 362 360 360 359 359 358 358 360 360 361 360 361 360 361 363 362 362 364 362 359 356 352 347 348 349 348 348 346 346 348 351 352 352 355 355 356 355 356 355 351 352 352 353 354 361 362 361 364 363 365 363 361 363 365 363 358 356 356 356 355 353 355 358 354 349
340 346 346 347 348 349 351 352 352 354 354 356 357 357 359 359 357 359 362 362 362 360 360 359 359 358 359 359 359 361 360 361 362 363 364 364 363 364 363 363 362 360 358 360 360 355 349 346 348 349 350 353 357 356 359 357 357 355 354 350 352 354 354 359 363 360 359 360 363 365 364 365 366 365 363 361 360 361 361 358 355 355 357 354 350
338 340 342 346 347 346 347 347 349 351 355 355 356 357 355 357 360 359 361 362 362 361 361 361 360 361 361 361 361 360 360 360 363 364 365 364 365 365 365 365 365 364 365 370 362 356 354 352 351 350 346 347 348 350 355 344 344 353 357 355 355 360 361 369 361 358 357 358 361 364 365 365 364 363 362 362 363 362 363 363 358 356 361 358 356
339 337 341 347 346 346 346 348 347 352 354 352 353 354 354 352 356 358 360 363 363 362 360 360 361 362 362 362 362 362 362 362 362 363 364 365 364 364 363 363 362 359 364 361 361 362 363 357 357 351 349 347 349 352 341 340 342 343 355 354 352 353 359 369 362 360 359 360 361 362 363 364 363 361 361 361 363 362 360 360 358 357 356 356 360
340 344 346 345 349 351 350 348 350 350 351 351 352 355 354 354 355 359 362 362 362 360 360 359 360 360 360 361 360 359 360 360 361 361 362 362 361 360 359 358 358 358 359 360 363 362 360 358 356 356 352 352 353 349 338 337 337 338 341 354 350 351 352 360 362 359 359 361 363 362 361 364 364 365 363 361 359 355 355 353 355 353 351 350 342
342 343 346 347 348 349 348 345 342 343 342 347 353 356 355 355 357 358 361 362 361 360 357 357 358 357 356 357 357 358 358 358 358 359 358 359 358 356 355 354 354 351 351 352 356 358 359 362 361 359 360 357 356 358 340 334 333 334 336 345 352 351 355 365 365 361 361 361 361 362 362 361 360 359 360 358 354 355 353 352 350 351 349 348 350
340 342 343 347 352 351 346 341 341 343 343 345 343 349 353 354 358 360 362 361 360 358 358 357 357 353 353 351 351 353 355 357 357 357 356 355 356 355 355 357 356 353 352 351 354 354 354 355 356 357 357 353 352 342 334 331 328 329 333 343 352 353 352 360 364 363 361 361 361 363 363 361 360 357 356 355 353 352 352 349 348 349 349 348 348
338 340 346 347 348 348 349 343 342 341 342 344 342 346 345 351 358 358 360 359 357 357 357 355 356 355 354 352 351 350 350 353 350 350 351 352 351 353 354 355 354 356 356 356 356 353 352 353 357 358 359 360 358 343 338 334 328 326 330 345 353 355 355 357 362 364 363 364 364 364 363 361 358 356 353 347 350 352 352 350 348 347 339 336 331
339 339 343 348 351 349 349 349 349 349 353 343 343 349 349 353 356 356 356 356 356 355 354 356 355 354 354 355 352 347 346 347 347 344 343 346 349 352 354 357 355 356 354 354 354 353 353 353 355 358 359 358 357 348 338 334 330 325 331 346 353 354 355 356 355 362 365 365 365 366 363 361 358 356 348 335 340 351 352 349 348 339 337 333 329
336 340 345 346 350 351 350 350 350 353 356 358 357 355 357 355 355 355 355 353 353 352 353 354 354 355 355 355 354 352 348 346 344 344 345 346 349 353 351 352 351 352 353 353 352 352 354 356 356 356 357 355 356 353 337 330 328 326 334 346 352 355 354 355 355 357 361 363 364 362 365 363 360 358 340 331 335 348 351 349 343 337 334 331 328
335 337 339 342 345 348 351 351 350 350 356 358 357 355 354 352 353 352 352 352 351 352 352 351 352 353 354 354 354 352 354 352 349 345 344 348 350 353 353 354 354 352 351 351 350 350 352 352 353 354 356 354 352 349 335 330 327 325 332 344 348 352 353 354 354 354 356 359 361 359 358 360 361 357 333 330 332 347 352 349 341 338 335 330 328
335 337 341 345 349 346 344 346 347 353 356 356 353 351 351 351 351 352 350 349 351 351 353 353 354 353 354 358 353 352 353 352 351 352 352 352 353 355 353 354 353 353 351 350 350 349 348 349 351 353 354 355 353 353 349 329 323 322 323 341 346 348 350 352 353 352 352 356 359 360 356 343 339 336 326 326 328 335 350 348 341 338 335 331 330
336 340 349 345 342 340 341 346 352 355 353 353 351 351 350 350 351 348 347 349 351 354 353 354 353 350 350 350 350 350 349 351 351 352 351 351 354 351 352 352 352 353 353 353 352 351 350 350 352 353 353 354 355 353 352 332 323 319 319 328 342 345 347 350 350 349 348 347 347 352 355 343 330 325 322 322 323 327 338 347 342 341 340 334 329
341 348 347 343 339 339 349 351 353 352 351 351 350 351 349 348 348 345 347 352 352 352 352 350 349 348 347 346 348 349 349 348 350 351 349 349 351 352 349 349 351 350 349 348 349 351 349 349 349 349 351 352 354 349 351 338 326 321 320 319 336 343 345 347 347 345 345 344 344 346 348 339 327 323 318 318 319 323 329 346 345 325 319 323 330
342 340 341 341 341 344 348 350 349 350 349 349 349 347 347 348 345 346 349 351 350 349 348 348 348 347 346 346 347 346 346 347 347 348 345 344 347 347 346 346 346 346 346 345 346 348 349 348 348 348 350 352 353 353 343 347 334 320 314 312 317 330 326 338 344 341 342 342 345 346 345 339 324 319 315 316 318 321 330 337 313 314 319 322 329
342 340 341 341 344 347 350 351 351 352 353 350 351 347 347 346 346 350 349 349 348 348 349 347 347 345 345 345 345 344 345 344 344 345 345 344 344 344 344 346 346 344 344 344 346 347 347 346 346 348 351 352 352 352 350 343 342 325 314 313 313 312 314 325 330 336 343 346 343 344 342 323 316 311 310 313 316 321 329 311 312 316 319 325 327
340 339 344 346 346 347 348 349 350 350 352 353 350 348 346 345 350 351 349 348 348 347 346 346 345 344 344 344 344 344 343 343 344 341 344 343 342 344 344 344 344 344 345 344 346 344 345 345 346 346 346 347 348 348 347 340 334 325 318 316 317 317 316 316 329 336 339 336 330 322 309 307 307 306 308 311 312 313 310 312 314 319 330 326 324
340 342 344 353 351 350 349 347 348 349 348 352 348 348 346 348 350 349 350 350 347 346 345 345 344 343 342 342 342 341 341 342 342 340 340 342 339 343 342 342 341 341 345 344 344 343 343 343 345 344 344 344 343 343 345 342 340 335 323 314 315 321 322 320 319 313 311 309 306 306 307 308 312 316 322 322 321 320 316 318 322 328 325 323 321
339 345 350 351 348 346 346 345 346 346 347 346 348 345 348 351 352 347 347 349 348 346 345 345 344 343 343 343 341 340 341 339 337 339 336 338 339 340 337 338 336 334 334 335 337 340 339 340 343 344 345 343 342 343 342 341 339 335 330 326 323 320 319 319 321 320 319 318 318 318 315 313 315 317 322 322 322 322 321 320 320 321 321 321 320
348 350 350 348 348 346 345 344 345 346 347 345 342 344 346 347 345 344 346 348 346 346 343 343 342 342 342 341 340 343 342 338 338 337 337 335 334 335 336 334 332 331 330 331 332 335 336 336 336 340 341 342 342 341 338 336 340 335 331 328 325 323 321 320 319 319 319 320 320 319 316 320 319 317 316 316 316 317 318 318 317 318 319 320 321
347 348 350 350 349 346 347 344 344 346 343 347 346 344 345 345 346 347 350 346 344 346 345 343 342 340 344 344 340 340 337 337 336 338 333 332 330 330 332 333 326 324 326 324 326 328 331 329 332 333 332 338 339 337 331 312 320 315 330 327 323 321 320 320 320 314 319 319 318 317 316 315 315 314 313 312 312 313 315 315 316 315 315 316 315
344 349 348 350 351 350 347 346 346 347 346 346 347 347 347 345 347 349 350 348 347 345 343 341 341 340 339 340 338 338 339 340 336 333 332 324 313 306 312 323 325 314 307 302 302 317 315 316 325 330 324 327 329 324 306 301 300 302 305 308 309 309 310 315 313 313 318 317 316 315 315 314 314 313 312 312 312 313 312 313 314 315 316 316 316
337 343 347 348 348 349 349 347 347 349 346 347 348 347 349 349 350 351 349 349 348 346 345 341 343 340 341 340 340 338 341 345 340 334 334 332 325 316 297 300 309 309 302 296 296 296 298 303 310 325 315 304 306 301 299 298 299 300 301 301 302 302 303 304 308 318 318 316 315 314 314 314 313 312 311 311 312 312 312 312 313 314 315 316 317
Wind_Speed
10 12 13 10 10 9 10 9 10 9 10 11 12 11 12 10 10 10 9 10 9 8 7 7 8 6 6 8 7 7 5 6 7 6 7 5 5 7 5 5 5 4 4 3 4 4 3 2 2 1 3 0 1 2 4 4 4 4 3 4 3 3 4 5 3 4 5 7 9 5 5 5 2 4 5 2 1 1 1 2 1 0 2 2 0
12 11 10 12 12 13 9 9 9 11 9 10 11 12 13 12 12 10 10 9 9 9 7 6 6 5 6 5 7 6 5 4 5 6 7 7 4 7 6 5 4 4 3 2 4 4 4 4 3 1 3 3 3 2 2 6 4 3 3 2 3 4 1 3 5 5 5 3 3 5 4 3 3 3 2 1 2 1 1 2 3 1 3 3 7
13 14 13 12 11 12 11 10 9 11 11 12 11 12 12 11 10 9 10 9 9 8 6 5 4 4 3 4 4 5 6 4 6 6 6 8 8 6 5 2 5 3 4 3 3 5 4 3 4 4 1 4 3 1 3 7 3 5 4 3 2 1 1 6 5 6 3 0 3 2 1 2 3 2 2 4 3 1 1 4 2 5 4 7 8
14 13 14 15 15 12 11 10 9 10 10 11 12 12 10 8 11 10 9 10 7 8 6 5 3 4 7 5 4 1 2 4 7 5 6 7 8 7 4 2 3 6 7 6 4 4 5 3 4 4 3 4 5 5 5 5 4 3 4 3 1 2 4 2 1 3 2 3 4 1 2 3 3 1 2 2 2 1 2 7 2 8 1 8 11
14 13 15 15 12 12 12 12 12 12 11 11 12 12 10 12 11 10 9 9 9 9 8 6 7 4 4 6 1 3 4 4 6 7 6 6 7 7 7 5 4 5 6 6 4 4 3 3 3 3 4 5 3 3 4 3 4 4 1 2 4 1 1 1 2 1 3 3 3 1 2 2 2 2 3 2 4 5 8 9 5 5 7 11 13
13 15 14 13 12 12 13 12 13 11 11 12 11 11 11 11 11 10 8 8 9 11 7 6 7 8 6 7 5 3 4 5 7 7 8 10 9 8 9 8 8 6 4 7 5 4 4 5 4 4 6 4 4 2 2 4 3 4 5 2 3 2 2 1 1 1 2 0 2 3 3 1 2 2 2 2 3 6 2 2 7 10 9 14 12
13 13 13 13 14 15 13 12 13 13 12 11 11 12 11 10 11 12 8 7 8 8 8 6 5 5 6 6 6 5 5 7 5 8 8 8 7 9 7 9 7 7 6 4 6 3 4 4 5 7 2 4 4 2 3 5 4 3 2 5 2 2 2 1 2 0 2 2 2 4 3 2 2 2 3 2 3 2 3 4 2 6 16 16 8
13 14 14 14 15 15 15 13 11 10 10 8 7 9 12 9 12 10 8 9 6 6 7 8 7 5 5 6 5 7 7 5 4 5 6 5 7 9 8 8 7 5 2 2 5 5 5 4 3 2 4 4 2 2 2 4 3 1 2 2 3 1 1 3 2 1 1 2 2 2 4 6 6 7 8 5 0 2 2 3 4 4 18 13 13
16 15 16 17 16 15 15 14 12 11 10 9 7 7 10 11 10 11 9 10 8 8 9 6 4 5 5 5 4 4 5 5 4 4 8 6 7 7 8 9 7 6 4 3 7 6 5 4 4 3 2 3 4 3 2 2 3 2 1 2 4 1 2 2 1 2 3 4 3 4 4 3 5 6 6 3 4 3 2 1 2 5 15 10 9
16 15 15 16 16 14 13 13 12 12 10 12 12 10 9 10 11 11 10 10 9 8 8 9 5 5 5 5 6 5 2 1 4 4 3 5 6 6 8 8 9 8 8 6 5 6 5 4 5 5 4 5 3 3 1 3 3 4 5 6 3 2 1 2 3 4 5 3 2 3 3 3 3 4 4 4 3 0 1 1 1 2 10 5 7
14 14 16 16 15 14 14 12 8 9 7 6 9 12 12 11 13 13 11 9 10 9 10 10 8 6 6 7 8 7 5 4 3 5 4 4 6 6 5 6 7 8 9 6 6 7 7 6 6 6 6 4 3 4 3 4 5 8 8 5 2 2 2 3 6 3 3 3 4 5 4 4 5 5 4 3 3 2 3 2 2 3 11 7 4
15 15 15 17 14 15 13 13 10 8 8 6 9 7 7 11 12 12 9 11 11 9 6 7 10 9 8 10 9 7 7 5 4 6 6 4 8 5 6 6 4 8 6 8 8 9 6 6 6 7 5 4 4 4 4 4 4 1 2 1 2 5 4 4 5 3 4 2 5 5 6 6 3 5 3 3 4 2 2 1 3 1 11 5 4
16 15 11 13 15 15 16 11 12 7 7 5 6 9 9 12 13 11 12 11 13 12 9 7 7 9 9 10 9 6 6 5 4 5 6 5 7 7 5 7 6 3 6 8 9 11 7 7 7 6 5 5 4 4 3 3 2 4 1 2 4 4 3 4 5 5 6 5 5 4 4 3 6 3 4 4 2 2 2 4 3 5 8 5 3
9 9 9 17 14 13 12 12 11 11 13 11 6 6 10 10 11 13 11 11 15 13 15 11 10 10 9 9 8 6 6 6 5 5 7 5 5 6 9 9 8 7 8 7 8 10 10 10 8 7 5 6 6 4 3 3 4 5 4 6 7 4 4 4 4 6 5 5 4 5 4 5 4 5 4 4 2 1 1 2 1 3 10 4 1
9 12 9 7 15 14 12 11 10 9 10 9 10 9 8 11 12 12 10 10 11 12 12 13 10 10 10 8 7 7 6 6 6 5 6 7 9 9 5 8 9 9 7 6 9 10 11 9 10 8 7 6 6 6 6 5 5 3 4 3 3 5 7 6 5 7 7 7 6 5 5 5 5 3 6 2 4 6 5 3 4 2 6 5 4
14 10 9 17 14 14 13 11 11 9 7 7 5 7 9 8 12 12 12 10 11 12 11 12 12 11 10 9 9 8 6 6 5 4 6 7 8 8 7 5 7 7 8 7 9 7 7 6 9 10 7 8 8 7 6 6 5 5 4 4 5 6 3 6 5 7 7 7 7 5 4 4 3 4 6 5 1 1 1 2 0 6 7 5 2
10 7 1 6 12 13 11 12 12 12 9 6 7 7 10 13 13 13 11 10 8 9 12 12 10 9 9 8 8 8 9 9 7 9 9 8 7 7 8 11 10 8 10 10 10 8 6 6 7 9 8 8 8 7 8 7 5 6 7 6 6 7 4 4 4 5 5 7 6 6 5 5 1 2 4 5 2 4 4 4 6 6 4 5 4
17 12 11 6 9 11 10 9 9 11 12 11 9 11 9 13 14 14 13 11 10 11 12 11 11 11 9 10 10 10 10 10 9 9 9 8 8 6 8 9 10 11 10 11 10 9 9 9 7 8 8 9 10 10 10 8 6 6 6 5 6 5 4 3 3 4 5 3 5 6 5 4 2 3 4 3 2 1 1 4 3 4 7 5 3
4 12 10 8 7 12 11 9 8 7 12 13 10 11 12 11 13 12 14 13 12 11 11 10 11 9 10 12 13 13 11 10 9 10 10 9 10 10 11 9 11 10 7 6 8 10 10 10 9 11 9 9 10 9 8 8 7 6 7 7 6 5 5 4 3 4 4 4 3 4 3 3 2 4 4 4 3 1 2 3 3 6 5 6 6
7 11 12 12 11 13 13 12 10 9 9 11 12 11 13 10 9 9 11 12 11 11 11 11 11 10 7 7 8 8 9 10 10 11 10 11 12 12 13 13 11 10 9 7 6 8 9 11 12 11 11 10 11 11 9 8 8 7 8 8 6 5 5 5 5 5 4 3 3 4 4 3 2 3 3 3 3 2 3 3 5 4 4 4 5
9 7 10 12 14 14 14 12 8 5 8 9 11 11 10 8 10 11 11 12 13 12 11 11 11 11 12 10 10 10 12 10 10 11 12 12 13 12 12 12 9 10 10 10 9 7 5 8 10 10 12 8 6 7 8 7 7 7 6 5 5 5 7 6 4 4 4 5 3 4 2 3 2 3 3 3 4 4 2 2 1 4 3 5 6
3 10 9 10 9 11 14 12 11 8 8 10 9 7 10 8 9 8 8 8 11 12 10 8 9 10 12 15 13 10 11 12 13 13 13 13 15 12 12 11 12 10 8 9 10 11 9 7 9 10 9 10 6 7 8 7 6 6 7 8 7 5 3 4 3 3 4 4 2 2 2 3 3 3 3 5 4 5 5 1 4 4 5 5 4
4 9 7 7 9 8 10 11 12 11 10 10 9 9 9 8 7 8 7 7 7 7 8 6 5 4 8 10 11 10 11 14 15 14 15 15 12 12 12 13 14 12 9 7 9 11 9 9 10 10 10 10 8 8 8 6 6 7 8 7 5 6 5 5 5 5 5 4 4 2 1 1 3 4 6 5 5 7 5 2 3 2 6 6 4
6 5 7 6 7 8 6 8 10 9 8 9 7 6 5 5 5 6 9 9 8 6 5 5 5 6 6 8 11 12 8 6 4 10 14 15 12 12 10 12 10 7 10 10 11 11 9 8 9 8 8 9 8 8 8 9 7 6 7 8 7 5 5 7 6 7 8 5 4 2 2 2 2 3 3 3 4 6 4 3 3 4 7 6 5
7 7 7 6 6 7 6 6 5 7 7 7 6 5 4 5 5 6 6 6 6 5 5 4 5 6 7 7 7 8 12 13 9 6 8 13 15 13 12 12 10 11 12 11 10 8 7 8 11 10 9 6 7 7 6 8 8 6 4 5 7 7 5 4 4 4 4 4 4 4 3 2 2 3 2 3 4 8 11 8 3 8 9 5 1
6 5 6 7 5 5 6 6 5 5 5 5 5 6 4 4 6 6 5 6 5 5 5 6 5 5 3 3 6 5 4 8 8 8 11 10 10 11 11 10 10 10 12 11 9 10 10 7 10 10 10 8 6 6 6 5 6 6 7 7 5 5 7 6 6 5 5 4 5 4 4 3 4 4 3 1 3 2 3 4 6 4 7 6 1
7 5 4 4 5 7 7 7 5 3 4 5 5 5 4 4 5 6 5 5 5 4 4 4 5 5 4 4 4 4 4 3 4 8 8 7 3 3 11 9 9 5 2 10 11 7 9 10 10 10 11 9 8 9 6 5 6 6 6 7 9 7 6 6 7 3 3 5 6 6 6 6 5 4 3 3 2 3 2 2 2 4 4 5 5
5 4 3 2 2 5 5 5 4 4 3 2 3 3 3 4 4 4 4 5 5 5 5 4 3 4 4 6 5 5 3 2 2 1 2 3 4 5 2 8 8 8 13 13 8 10 7 8 9 9 10 7 7 7 7 6 6 7 6 6 6 7 9 7 5 6 6 7 6 6 6 6 6 5 4 5 4 3 3 5 3 4 6 9 9
6 4 4 4 3 1 2 4 3 3 4 4 4 4 5 4 5 5 5 5 5 6 6 5 5 4 4 3 3 3 2 2 2 3 3 3 3 3 1 6 5 2 6 7 6 7 9 13 11 9 6 6 7 6 6 6 7 7 7 8 7 7 6 6 6 8 6 4 6 6 6 6 7 9 10 7 7 6 2 3 3 2 2 7 4
4 5 6 4 5 5 5 5 5 5 4 4 3 3 3 5 5 4 4 5 6 6 6 6 6 6 5 5 4 3 3 3 3 3 3 3 3 3 4 4 3 2 2 2 2 3 8 8 5 4 6 6 5 4 6 11 10 7 7 9 7 7 7 4 6 7 5 6 5 5 5 12 13 13 13 13 11 10 10 6 4 4 3 5 7
4 1 4 6 5 5 3 2 2 4 4 2 2 2 2 3 4 4 5 6 6 6 6 6 6 5 5 6 5 5 4 4 4 3 3 3 3 3 2 3 3 4 3 1 2 4 4 2 2 7 5 9 8 8 12 11 13 13 9 6 7 4 4 4 7 7 8 7 6 6 4 8 11 11 10 13 13 13 11 11 9 12 8 5 5
6 6 6 8 8 7 6 4 1 4 1 2 3 1 3 4 4 5 5 5 6 6 6 6 5 5 5 5 5 5 5 5 4 4 3 3 3 3 3 4 4 5 4 3 4 4 2 3 3 4 6 9 6 9 11 12 14 15 12 10 7 5 2 1 6 7 8 7 7 6 5 5 7 8 8 8 10 11 8 8 10 9 5 5 4
9 8 4 3 5 7 9 8 7 1 2 3 7 6 5 4 5 3 3 4 5 5 5 5 4 5 4 4 4 4 4 4 4 4 3 2 2 2 4 6 5 4 5 5 4 4 4 4 4 4 7 6 5 8 19 15 15 15 16 13 8 8 7 10 8 9 8 8 7 7 7 6 5 10 9 7 7 7 9 10 9 8 7 7 7
10 7 5 4 4 6 7 9 4 2 3 5 6 3 1 3 4 5 5 3 4 4 5 5 4 3 2 2 2 3 4 3 3 2 2 2 3 2 2 4 6 7 5 5 5 4 3 3 4 5 5 5 5 7 10 11 12 15 16 13 10 11 8 9 9 9 7 9 9 8 8 8 6 7 6 7 8 7 7 7 7 5 5 6 7
11 8 5 6 7 10 9 7 5 4 2 6 7 5 4 5 6 5 4 3 3 4 5 5 5 4 3 0 1 3 2 3 1 2 1 1 2 1 4 4 5 6 6 6 6 4 3 3 5 5 6 9 9 2 7 2 8 12 14 12 10 10 8 7 8 9 9 9 10 9 10 10 9 8 8 9 9 9 8 7 7 7 6 4 2
10 9 8 9 7 8 10 10 9 6 6 6 6 7 7 7 5 5 4 5 4 4 3 4 4 5 5 6 5 2 2 0 2 2 2 3 3 5 5 3 4 5 5 4 4 3 3 4 5 6 6 5 5 4 3 1 4 6 9 7 8 8 8 7 8 8 9 8 9 10 10 11 10 10 12 15 12 10 9 9 8 5 5 3 3
11 11 11 11 8 9 8 8 10 9 11 17 16 14 12 10 7 4 4 4 4 6 6 5 4 4 4 4 4 5 4 1 3 1 4 5 5 5 4 4 5 6 5 5 5 4 5 5 7 7 7 6 6 8 8 7 5 6 3 5 8 8 9 9 8 8 9 9 9 10 10 9 10 10 13 16 15 13 10 9 8 8 6 5 4
11 10 12 12 11 10 10 8 6 7 6 5 5 5 6 5 4 4 4 3 3 3 3 4 6 6 4 4 4 3 2 1 2 3 5 7 7 4 5 5 6 4 4 4 6 6 6 6 7 7 7 7 8 8 9 10 10 7 6 5 7 8 9 9 9 8 8 8 10 14 13 10 10 10 14 17 18 16 11 10 9 11 9 7 6
10 11 11 11 10 10 11 9 9 8 5 4 4 4 4 3 3 3 2 2 2 2 3 3 2 1 1 1 1 1 3 5 9 11 10 9 8 6 5 5 5 4 4 4 6 6 6 6 6 7 9 10 8 9 11 12 11 10 6 3 6 8 10 9 9 9 8 8 8 11 15 14 12 12 16 17 19 18 12 12 12 12 11 9 8
11 9 11 10 8 8 9 8 8 7 4 4 3 4 3 3 3 3 3 3 3 3 2 2 3 2 2 2 1 1 3 3 3 2 1 3 2 3 4 4 5 4 5 6 6 6 7 6 6 7 8 9 9 8 8 11 11 11 8 5 6 8 10 10 9 8 8 7 8 8 10 16 17 14 16 19 20 21 14 12 12 12 11 11 11
12 11 10 9 8 6 8 8 7 6 5 4 4 3 3 3 3 2 2 1 1 3 2 4 4 2 2 2 3 3 3 3 3 3 2 2 1 2 3 4 4 4 4 4 5 6 6 6 6 6 7 8 7 7 7 10 10 8 8 9 8 8 10 9 5 4 4 4 6 7 6 8 15 13 17 19 21 21 17 13 13 13 12 12 13
10 11 9 8 8 7 8 9 7 6 5 4 2 4 2 2 3 4 3 3 3 2 2 1 2 1 2 2 2 2 1 1 3 3 2 3 2 3 3 3 3 4 5 5 5 4 5 6 6 6 7 9 9 11 9 9 10 11 11 13 8 10 11 7 4 5 4 5 7 7 7 8 16 16 17 19 21 21 19 13 12 10 16 21 13
11 10 9 9 8 9 9 8 7 6 5 4 4 4 3 3 3 3 4 4 1 2 1 2 2 1 2 1 2 1 1 2 5 5 2 2 3 3 2 3 3 4 5 5 5 4 4 5 5 6 7 7 6 5 7 8 9 9 9 9 10 10 11 6 4 7 10 8 5 4 8 14 16 16 17 19 21 24 15 5 13 19 20 21 16
10 10 11 10 9 9 8 6 5 5 4 5 4 4 3 3 3 3 2 3 2 2 2 2 2 2 2 1 3 5 6 7 7 7 4 3 4 4 0 2 3 3 4 4 4 4 3 3 4 3 2 3 4 3 3 5 3 3 5 3 1 4 4 3 2 5 5 5 6 6 5 6 14 12 9 14 15 10 10 16 19 20 22 20 13
10 11 10 9 9 11 8 7 6 4 3 3 3 3 4 3 5 2 2 2 3 2 2 3 3 2 2 3 2 2 3 3 3 4 4 4 6 4 4 4 3 3 4 4 4 3 3 4 3 2 2 2 2 1 2 4 7 9 10 8 7 7 5 8 6 4 5 4 3 1 6 8 8 11 13 10 8 8 16 20 20 21 16 10 11
11 10 11 9 9 9 8 8 7 6 5 3 3 3 5 4 5 2 3 3 3 3 2 2 2 2 3 4 3 5 6 5 2 3 4 6 3 8 7 4 3 4 5 6 5 4 4 3 3 2 3 3 3 2 0 3 3 7 7 10 11 11 13 12 10 8 9 12 10 8 9 11 11 10 9 7 6 8 12 16 19 17 11 10 10
9 12 12 10 11 10 10 9 8 7 6 5 5 5 4 5 5 6 5 4 4 3 3 2 3 4 3 2 4 6 3 3 7 2 8 8 7 7 6 3 3 5 6 6 4 3 3 3 2 3 3 3 3 3 2 2 3 4 4 4 6 7 8 10 9 7 10 10 12 12 10 13 14 17 17 16 15 15 14 11 9 9 8 9 8
10 12 11 11 11 11 11 9 8 6 6 7 5 5 7 6 6 6 6 6 4 4 4 4 4 4 3 4 5 8 8 3 4 4 5 4 5 6 5 5 4 4 4 4 5 5 4 2 4 2 1 2 2 2 3 3 1 4 4 4 5 4 4 5 9 8 9 12 13 14 13 8 8 9 10 10 9 9 10 10 9 9 10 11 14
9 8 9 8 9 10 9 9 6 5 4 4 5 4 8 6 5 4 6 6 5 6 5 5 4 4 2 1 5 4 5 4 5 5 6 5 4 3 4 4 5 5 3 3 4 5 6 6 7 4 5 4 2 2 2 3 4 5 5 6 5 5 6 6 10 13 12 9 9 9 9 10 9 10 10 10 9 10 10 10 11 11 11 10 10
8 5 8 7 8 8 9 8 6 5 5 4 4 2 2 7 6 4 6 5 5 4 4 5 4 4 5 6 5 5 4 1 4 7 7 5 9 9 6 4 3 6 7 4 2 2 4 5 6 3 3 3 3 2 3 7 8 11 12 12 10 9 9 10 9 11 10 8 7 8 7 8 8 8 9 8 8 8 8 8 7 8 8 8 8
14 10 8 8 9 8 9 8 7 6 5 5 5 6 4 3 3 5 6 5 6 5 5 5 3 4 1 4 4 3 5 3 4 6 5 6 4 5 9 9 6 5 4 5 2 4 6 6 5 2 4 8 6 5 7 6 10 11 13 14 14 14 13 13 11 9 8 8 8 9 8 8 8 8 10 10 9 9 9 9 8 7 6 8 7
Wind_Direction
186 177 171 183 190 164 193 176 177 175 163 168 160 155 147 158 147 151 128 141 151 153 171 176 167 170 182 175 169 190 227 148 162 158 174 178 175 148 159 180 157 181 175 163 136 132 111 117 54 354 32 143 320 200 263 269 273 267 281 254 273 228 236 247 354 20 22 26 349 28 1 8 8 356 37 356 79 99 63 98 145 279 92 80 18
177 182 186 185 193 179 195 175 175 182 174 161 166 162 153 167 159 155 141 156 156 160 168 183 163 175 178 180 163 181 215 160 165 168 174 172 157 143 162 181 162 174 172 183 150 138 142 148 167 112 173 187 220 255 259 272 260 272 282 287 277 253 216 328 2 348 55 32 16 347 345 352 27 318 293 141 287 20 298 181 158 70 66 77 36
186 174 182 195 189 187 191 167 188 190 179 173 170 176 168 168 146 164 147 161 160 159 167 183 148 163 175 175 186 172 199 181 161 180 166 175 162 153 155 117 159 192 175 195 186 148 130 128 162 145 206 166 202 294 277 255 261 249 253 272 304 315 104 45 26 8 73 263 171 47 322 340 336 329 10 2 12 278 340 303 246 135 73 92 85
193 178 184 196 186 191 185 176 187 196 181 180 178 173 175 162 150 162 160 157 162 151 163 171 118 65 66 26 346 210 205 203 149 202 166 166 162 156 133 150 195 186 188 175 212 121 137 154 110 137 201 235 198 196 224 249 252 259 251 257 141 298 48 347 20 73 125 89 13 29 321 356 331 342 311 291 291 263 243 249 4 96 148 85 66
183 188 189 197 185 186 202 181 179 195 189 190 180 181 176 171 156 164 166 158 161 152 161 154 116 119 121 81 342 325 302 255 171 183 182 147 160 178 154 176 205 204 193 173 191 134 125 121 140 168 228 237 232 207 223 255 245 240 219 34 316 66 105 102 300 332 139 162 150 116 317 41 241 258 267 251 251 247 218 217 173 175 125 98 84
186 191 187 188 189 193 210 174 180 198 194 195 182 190 177 167 162 162 161 160 160 157 130 97 134 145 156 139 168 202 221 219 186 179 191 161 180 180 173 175 190 197 202 194 150 143 150 162 150 179 216 219 244 250 274 261 4 337 348 274 259 305 119 79 288 210 247 199 126 200 165 225 295 285 274 283 273 269 352 20 125 108 122 84 93
189 195 190 183 201 196 205 194 189 193 197 187 195 184 169 165 164 166 165 144 144 133 122 123 132 146 156 160 173 174 194 207 190 184 196 163 188 176 170 178 186 190 203 177 115 127 192 157 174 197 148 247 214 178 235 245 136 95 92 359 19 30 46 184 246 251 26 333 279 261 238 200 223 290 259 287 293 352 341 287 121 148 102 95 106
188 196 189 203 197 186 198 203 191 183 198 175 185 206 163 174 158 163 156 143 146 137 124 140 160 159 152 170 186 179 194 196 200 177 202 181 181 176 166 171 183 162 211 94 137 169 200 158 182 230 186 211 332 286 295 56 66 153 79 229 301 88 253 266 245 251 179 245 254 274 261 235 223 215 241 261 194 276 325 5 324 91 90 125 137
197 195 191 200 201 196 189 199 186 184 183 160 199 153 190 170 162 162 154 129 172 140 143 158 148 146 151 157 191 218 195 205 219 216 187 186 190 170 162 172 178 149 179 192 175 187 164 174 185 197 227 229 180 240 245 99 101 86 297 290 248 118 246 243 60 255 260 229 203 249 242 283 296 300 301 269 216 232 220 308 291 115 103 128 137
208 193 195 198 196 198 190 196 199 188 181 169 181 176 169 171 156 164 163 135 161 153 141 162 152 165 154 177 185 204 193 246 240 223 242 155 197 165 165 162 178 174 167 178 187 163 178 178 191 198 216 223 231 231 187 110 163 178 218 237 260 196 9 323 246 227 237 293 256 181 246 252 286 294 288 314 308 182 235 250 242 10 98 93 131
206 198 197 190 191 192 192 191 196 185 130 123 194 179 181 173 164 166 166 139 145 159 161 156 171 181 182 181 192 196 196 192 245 225 237 177 190 185 161 182 172 181 173 166 171 191 182 189 193 195 216 209 207 235 211 221 196 197 208 209 205 229 213 253 254 269 281 222 248 262 260 231 212 239 225 243 309 329 355 326 346 333 101 112 51
192 202 200 176 197 188 194 178 164 155 134 147 208 136 141 166 163 164 158 130 148 157 173 158 168 185 188 185 190 196 189 189 210 227 207 209 174 195 174 175 188 183 175 170 181 187 190 190 199 198 199 219 209 223 233 228 240 242 103 61 237 215 220 244 281 284 272 356 296 274 249 257 246 240 282 226 175 232 149 81 266 125 84 104 131
192 206 165 169 189 196 180 159 149 127 130 132 228 157 153 164 168 163 162 149 148 162 177 194 183 187 190 185 186 179 173 184 202 243 212 209 180 192 175 168 182 184 195 166 182 184 187 193 200 207 186 192 220 246 223 255 306 306 115 214 243 232 225 226 246 246 246 232 247 263 289 274 256 293 301 273 304 5 23 10 357 34 83 119 103
191 213 196 179 185 184 177 150 161 139 148 167 200 196 173 164 174 165 169 163 154 169 170 183 193 190 193 189 182 171 175 183 200 230 227 205 201 197 192 178 184 195 202 167 190 193 200 196 196 198 196 184 206 217 234 242 246 222 184 190 217 213 242 244 235 250 265 272 268 263 263 274 322 315 282 276 293 355 206 196 165 43 99 123 109
233 185 199 238 184 158 169 152 149 146 146 135 177 201 163 155 177 156 158 171 170 157 171 175 181 183 188 186 181 182 179 183 194 217 257 214 202 203 199 188 191 201 198 184 201 209 208 186 186 197 195 190 191 202 218 224 239 239 247 273 290 191 213 230 235 249 261 255 245 244 265 291 298 305 301 344 7 318 20 29 75 115 107 118 140
221 200 192 188 167 153 137 137 148 144 141 157 151 181 167 166 166 161 162 164 167 170 170 175 178 179 177 183 184 182 181 179 185 212 244 252 208 204 188 204 198 191 201 208 202 211 207 200 182 197 190 187 195 202 211 219 215 224 226 244 254 259 233 204 226 247 252 263 279 293 298 291 290 302 312 315 346 307 92 359 317 110 127 157 107
168 189 68 216 150 143 146 148 157 149 148 165 185 191 154 163 164 159 168 167 157 178 169 175 170 170 175 185 193 190 190 193 192 200 220 238 230 207 195 206 211 195 197 207 210 194 191 204 204 205 197 189 195 201 207 217 213 208 215 214 230 242 248 251 235 222 237 253 260 256 247 239 215 305 286 288 339 68 1 4 54 99 99 122 146
129 202 140 177 147 125 116 138 141 146 161 172 191 189 171 169 161 165 169 169 176 186 179 173 167 169 173 184 199 204 201 202 197 198 208 227 238 221 218 204 215 214 204 204 207 194 183 191 198 213 210 194 199 200 204 210 212 225 230 210 218 231 256 278 272 264 254 250 260 269 293 313 283 250 253 271 281 89 96 193 129 110 121 128 141
131 120 90 77 126 124 138 144 167 153 163 179 188 189 162 163 163 170 173 177 180 187 186 177 179 178 180 186 190 198 201 200 201 205 202 208 224 223 218 216 208 222 217 212 195 207 188 187 195 207 217 197 198 203 196 206 206 211 223 232 223 205 217 239 268 272 269 269 309 309 291 284 302 285 291 294 299 235 230 64 99 129 147 142 156
111 129 133 149 148 139 147 149 166 182 174 185 191 172 163 158 172 177 178 178 172 183 187 190 182 184 179 186 199 201 200 202 199 204 205 205 212 217 218 226 213 208 222 213 214 219 208 198 203 213 219 209 197 203 203 198 199 208 217 223 221 205 210 213 232 248 270 249 245 266 281 297 316 312 300 289 283 280 249 227 149 147 135 128 130
98 123 119 141 144 143 154 143 153 172 181 174 171 171 172 169 177 185 179 179 180 191 200 189 188 176 172 183 203 202 210 202 201 207 204 211 213 211 213 222 218 217 207 208 211 222 222 187 202 207 224 222 206 206 197 201 195 200 208 220 230 216 206 203 199 239 274 287 245 244 283 300 316 300 308 296 282 273 291 250 97 151 135 127 136
152 138 156 142 137 146 142 137 148 180 187 175 173 174 182 187 179 158 169 177 193 188 194 191 199 191 179 165 197 208 198 198 195 201 208 213 213 203 212 221 225 221 220 208 200 208 217 214 212 216 212 226 215 201 210 207 204 198 202 217 231 251 205 196 191 223 233 246 293 301 254 307 290 269 275 280 281 274 264 238 142 112 103 89 114
98 121 129 126 143 159 149 156 155 179 182 182 176 184 183 177 162 158 174 188 185 199 184 184 196 214 204 178 156 197 210 201 203 196 205 213 209 208 207 215 216 213 212 228 222 212 207 212 213 212 209 217 220 209 206 211 210 202 197 211 221 216 206 204 189 208 226 224 234 252 231 298 19 359 321 311 306 280 279 253 126 179 123 124 113
126 94 119 137 155 145 150 147 162 177 173 172 176 178 172 152 155 168 184 190 189 181 167 169 180 220 244 214 184 172 191 238 230 217 206 208 206 211 220 224 225 233 223 212 223 219 206 207 225 231 207 206 208 213 206 206 218 205 190 197 209 229 207 202 212 202 210 206 190 180 194 133 191 270 288 295 295 279 262 289 175 179 131 137 112
141 139 141 151 153 157 158 163 168 176 179 175 171 169 154 157 168 177 187 190 181 166 163 171 188 196 223 238 226 202 179 196 197 240 225 211 208 205 211 208 213 224 230 221 212 225 216 205 217 226 234 218 210 212 211 205 204 213 215 204 201 208 224 220 216 221 196 162 168 188 210 180 128 180 237 275 306 2 342 303 310 45 25 26 102
106 130 142 151 176 144 163 167 177 182 183 166 169 168 176 170 182 182 190 176 174 176 174 172 187 182 189 226 223 230 246 203 178 207 233 227 218 225 209 184 205 221 224 218 232 219 222 209 225 224 224 227 221 224 217 214 212 201 202 222 221 192 203 214 221 174 199 182 186 191 187 202 208 198 206 97 74 104 257 328 335 96 129 167 169
118 127 142 148 153 159 173 180 179 184 199 175 163 155 159 178 177 182 179 166 160 160 159 175 185 194 208 211 224 225 218 279 216 206 214 243 210 246 252 201 205 222 324 260 224 223 233 223 213 217 226 223 212 217 222 202 215 226 217 201 206 215 216 210 221 167 203 200 196 183 183 198 201 203 184 143 157 181 236 300 280 115 200 115 110
89 141 153 172 201 149 169 181 177 189 185 133 162 145 155 180 188 178 179 163 159 157 157 172 186 200 200 215 225 226 251 269 261 321 319 305 250 210 104 313 250 162 220 238 251 226 225 232 227 219 222 220 214 208 206 210 202 215 226 231 211 205 212 209 206 136 214 230 199 195 183 179 185 189 174 168 176 182 193 234 241 188 178 152 176
145 150 146 145 184 179 159 196 205 221 202 191 182 165 158 182 188 183 188 184 166 166 170 172 182 195 204 219 233 262 251 261 303 328 322 303 293 306 197 214 215 233 237 208 218 254 219 228 229 234 227 217 225 218 210 203 208 207 215 229 233 229 218 205 183 157 173 217 204 190 180 173 176 181 187 159 185 192 171 182 212 254 39 117 185
168 172 167 189 196 183 186 193 193 211 216 206 181 184 194 184 187 188 200 177 175 178 178 183 188 195 197 199 212 226 241 256 270 271 264 259 276 288 299 319 315 195 208 256 235 245 259 254 260 294 287 254 236 239 231 207 202 208 216 226 224 227 231 210 156 174 167 200 210 206 205 194 186 185 182 180 193 210 214 217 189 247 190 165 172
62 321 227 182 181 188 191 206 184 246 211 211 200 153 183 219 205 198 194 190 186 188 191 189 197 201 202 197 199 206 212 231 228 234 236 264 282 294 282 296 322 320 337 305 276 271 266 211 262 241 226 267 253 237 229 233 215 211 212 214 229 222 216 143 171 172 189 202 206 209 209 203 193 184 183 189 198 208 214 210 181 218 223 185 183
173 180 242 166 165 178 140 110 155 285 300 351 305 215 208 232 237 216 200 195 188 198 203 204 201 202 208 212 207 206 211 215 231 226 231 238 249 258 285 309 314 302 286 275 266 272 296 307 231 234 229 228 226 273 249 224 218 213 208 212 211 232 190 127 185 181 193 196 196 194 194 205 192 187 181 190 200 194 186 189 178 190 141 82 92
176 170 162 205 159 163 140 168 158 159 287 188 228 239 208 211 244 264 243 187 194 201 202 208 204 206 214 224 224 235 229 222 228 249 261 285 263 273 356 339 321 333 332 315 306 269 252 249 252 265 262 251 143 228 253 234 222 212 210 213 208 214 164 212 196 191 194 192 188 188 188 202 199 187 182 167 170 170 192 197 188 139 132 140 126
159 152 161 170 161 141 103 89 85 98 265 337 357 325 315 264 242 236 231 179 190 186 190 204 173 160 183 212 244 229 240 230 232 240 277 313 319 67 164 207 248 266 285 297 292 301 311 304 271 260 258 254 262 224 229 239 232 220 211 205 220 214 204 179 189 188 187 190 191 192 190 195 183 183 177 169 170 174 166 174 176 177 156 150 151
133 145 169 124 126 114 118 122 137 174 67 33 310 297 269 242 227 219 213 187 201 186 190 190 172 172 169 217 307 286 267 229 137 3 345 319 332 199 212 190 208 229 234 240 254 280 272 267 279 282 274 265 255 293 37 283 260 243 227 209 218 216 214 200 196 197 195 196 199 199 198 195 184 179 191 180 174 182 174 176 180 188 179 164 155
146 145 133 149 150 133 136 150 155 167 168 144 243 251 250 259 241 215 191 184 190 178 190 192 192 176 183 176 187 190 265 134 74 327 309 263 228 244 236 200 213 227 229 234 246 213 249 269 271 265 263 270 266 293 289 323 206 229 257 254 226 223 222 213 204 200 203 201 204 201 200 201 198 195 192 187 185 183 183 181 176 159 107 92 55
147 157 146 138 142 145 153 155 169 180 175 174 194 196 198 201 203 192 193 194 192 173 176 200 191 194 196 185 173 173 205 213 97 228 256 247 253 240 243 241 231 227 219 222 230 224 237 248 251 248 250 249 254 250 229 229 246 270 227 236 243 229 223 224 220 208 202 204 203 206 205 204 199 204 189 185 188 184 180 183 166 138 146 130 116
147 144 137 145 148 153 156 167 160 185 173 167 167 175 157 201 160 181 161 191 197 209 172 186 167 172 170 167 182 170 183 122 49 320 302 277 255 223 228 232 239 239 230 237 245 252 244 238 241 247 241 250 255 253 255 264 261 236 210 244 247 246 236 225 225 220 207 204 210 204 205 205 204 205 184 183 191 189 188 181 160 154 151 146 137
155 149 144 137 146 156 153 159 160 147 154 161 165 166 169 145 143 193 191 164 199 145 170 169 133 125 80 76 114 154 183 173 174 176 200 232 241 221 215 220 232 224 241 241 250 253 252 250 255 259 255 250 250 252 243 245 248 247 225 221 252 259 249 234 226 226 222 215 211 210 205 208 207 208 184 186 188 191 188 183 170 164 162 156 154
152 151 140 141 143 151 147 152 150 136 147 138 134 152 151 146 162 189 217 171 181 165 134 144 119 89 57 52 342 38 8 28 20 37 119 199 239 269 254 251 242 230 222 229 233 237 242 248 243 246 247 243 244 246 247 238 236 244 228 219 238 249 254 245 231 228 230 222 216 213 211 213 215 197 181 186 189 192 190 181 173 178 168 163 157
145 126 132 137 140 153 141 142 132 139 148 151 190 135 140 150 186 217 216 147 99 100 107 88 72 103 108 65 45 43 32 16 38 17 30 318 277 295 303 278 267 256 263 250 241 240 248 248 247 249 249 251 247 252 254 241 239 221 206 215 240 240 252 259 273 298 305 314 315 295 291 239 217 193 186 188 190 194 189 181 182 189 185 151 141
128 128 143 145 152 147 133 132 132 145 142 144 187 126 166 151 193 207 138 84 92 109 106 50 80 100 109 169 139 137 145 66 44 40 15 338 345 323 297 294 301 295 290 287 280 247 238 244 246 249 257 259 259 254 259 257 242 235 228 219 234 244 235 249 335 294 265 242 227 227 226 254 231 201 193 188 193 194 190 180 187 158 122 131 136
138 152 153 160 145 146 136 133 152 148 144 153 166 152 186 173 211 90 114 138 166 132 145 139 183 168 172 179 122 71 207 186 181 170 140 22 15 333 319 329 323 313 301 294 282 280 264 249 246 247 249 254 264 260 232 247 248 233 219 221 244 265 359 3 254 246 249 242 231 232 232 240 231 205 194 194 197 195 182 167 130 135 137 132 134
160 157 156 152 144 136 133 150 146 139 151 162 168 165 157 198 129 135 119 105 153 159 180 191 189 197 249 241 141 201 216 213 203 139 117 181 213 202 354 303 260 248 252 259 267 261 257 266 271 270 271 287 293 299 335 360 325 78 69 102 98 269 271 224 307 270 277 253 219 234 248 254 234 208 191 204 206 182 152 145 143 139 140 139 138
163 160 147 145 139 134 140 142 134 154 125 142 154 189 160 159 116 169 134 155 136 151 186 225 233 233 224 232 219 269 281 298 284 124 147 209 209 223 187 217 245 260 256 254 254 255 266 274 265 253 288 316 327 17 123 96 86 82 65 72 106 132 162 192 203 265 301 312 322 224 124 134 134 123 117 108 102 121 136 141 136 134 127 128 135
160 145 132 118 128 137 148 151 158 159 153 160 194 183 171 139 129 114 182 157 180 172 205 248 267 255 257 267 236 223 202 198 232 225 223 206 159 189 186 193 215 251 230 226 231 243 249 249 250 246 227 226 252 285 109 119 94 85 72 66 74 93 100 97 96 95 78 68 67 76 87 99 102 100 98 99 89 103 117 121 127 127 122 123 130
152 129 124 137 149 154 156 159 163 164 172 168 202 183 143 122 143 179 171 166 190 195 214 205 245 260 236 267 286 277 286 171 192 86 42 18 17 350 64 55 12 344 344 336 315 251 239 270 239 233 225 206 218 202 220 138 127 108 112 105 94 83 88 97 102 101 95 86 78 75 71 74 86 87 90 95 95 94 88 79 79 83 92 97 105
120 129 145 154 160 158 160 164 161 177 178 174 173 217 142 179 176 208 157 155 181 220 217 212 220 213 221 234 212 249 258 277 109 77 84 67 14 7 27 49 27 9 337 322 325 325 305 309 318 347 319 279 344 37 46 8 1 116 113 106 94 79 84 103 105 103 97 98 101 96 85 78 69 68 70 73 74 72 82 87 89 93 96 98 96
129 148 170 172 161 159 158 152 152 161 187 187 175 194 147 179 184 191 135 170 188 199 223 224 215 229 206 196 267 243 224 144 121 100 75 62 79 29 20 54 58 10 5 324 320 315 346 0 330 18 345 315 285 86 61 8 16 48 114 127 130 123 116 117 121 119 105 99 98 96 103 102 99 93 84 82 85 93 88 85 91 94 107 117 126
324 203 182 159 154 147 155 151 152 169 172 186 176 212 168 160 187 172 151 190 174 205 204 242 233 244 214 200 212 234 243 166 133 121 114 88 54 68 54 11 46 48 42 35 349 320 336 330 318 41 33 342 12 51 42 57 67 77 87 96 102 104 116 119 116 108 110 107 99 99 95 101 104 106 106 103 100 100 101 98 93 94 97 102 111
239 225 163 163 157 161 151 153 161 167 169 186 182 179 178 201 166 155 179 180 188 188 200 211 229 235 16 349 316 343 10 70 92 130 130 135 136 66 60 57 55 51 34 17 0 332 329 307 286 303 75 52 67 57 75 93 91 95 102 107 108 115 120 127 131 116 96 103 113 109 106 103 101 109 113 113 112 108 113 113 107 103 99 106 110